Location: Kunchanapalle
(16.4623°N, 80.6176°E)
Time: 14:27:01
(UTC+00:00)

Cosmos 1315 Rocket - Pass Details

Date: 13 August 2020
Orbit: 529 x 569 km, 81.2° (Epoch: 24 September)

Event Time Altitude Azimuth Distance (km) Brightness Sun altitude
Rises 23:33:41 0° 182° (S) 2,736 6.2 -11.8°
Reaches altitude 10° 23:35:51 10° 180° (S) 1,847 5.3 -11.3°
Maximum altitude 23:39:55 75° 95° (E) 588 3.1 -10.4°
Drops below altitude 10° 23:44:01 10° 10° (N) 1,863 5.9 -9.4°
Sets 23:46:13 0° 9° (N) 2,762 6.8 -8.9°
